Tracking 34706 objects as of 10-Jul-2026
HD Live streaming from Space Station
objects crossing your sky now

COSMOS 883

Track COSMOS 883 now!
10-day predictions
COSMOS 883 is classified as:


NORAD ID: 9610
Int'l Code: 1976-122A
Perigee: 958.0 km
Apogee: 1,009.9 km
Inclination: 83.0 °
Period: 104.6 minutes
Semi major axis: 7354 km
RCS: 1.9565 m2 (large)
Launch date: December 15, 1976
Source: Commonwealth of Independent States (former USSR) (CIS)
Launch site: PLESETSK MISSILE AND SPACE COMPLEX (PKMTR)
Your satellite tracking list
Your tracking list is empty




NASA's NSSDC Master Catalog

Two Line Element Set (TLE):
1 09610U 76122A   26191.12734816  .00000046  00000-0  30751-4 0  9995
2 09610  82.9511 247.6667 0035236 148.5205 211.8071 13.76362425488128
Source of the keplerian elements: AFSPC